Sexton Summit, OR

1:43 PM PDT on October 16, 2019 (GMT -0700)
Sexton Summit

Weather History for KSXT - August, 2019

Change the Weather History Date:

Wednesday, August 14, 2019

  Actual Average Record
Temperature  
Mean Temperature 70 °F -  
Max Temperature 81 °F 74 °F 95 °F (2008)
Min Temperature 59 °F 52 °F 44 °F (1999)
Cooling Degree Days 4    
Growing Degree Days 20 (Base 50)    
Moisture  
Dew Point 51 °F    
Average Humidity 58    
Maximum Humidity 75    
Minimum Humidity 32    
Precipitation  
Precipitation 0.00 in - - ()
Sea Level Pressure  
Sea Level Pressure 30.09 in    
Wind  
Wind Speed 6 mph (North)    
Max Wind Speed 13 mph    
Max Gust Speed 23 mph    
Visibility 10 miles    
Events      
Averages and records for this station are not official NWS values.
T = Trace of Precipitation, MM = Missing Value Source: NWS Daily Summary

Daily Weather History Graph

Daily Weather History Graph

Search for Another Location

Airport or City:

Astronomy

Aug. 14, 2019 Rise Set
Actual Time 6:18 AM PDT 8:16 PM PDT
Civil Twilight 5:48 AM PDT 8:47 PM PDT
Nautical Twilight 5:10 AM PDT 9:24 PM PDT
Astronomical Twilight 4:30 AM PDT 10:04 PM PDT
Moon 8:15 PM PDT (8/14) 5:19 AM PDT (8/14)
Length of Visible Light 14h 58m
Length of Day
13h 57m
Full, 100% of the Moon is Illuminated
Aug 14
Full
Aug 15
Full
Aug 23
Last Quarter
Aug 30
New
Sep 5
First Quarter

Hourly Weather History & Observations

Time (PDT) Temp. Dew Point Humidity Pressure Visibility Wind Dir Wind Speed Gust Speed Precip Events Conditions
12:56 AM 61.0 °F 51.1 °F 70% 30.07 in 10.0 mi North 9.2 mph - N/A   Clear
1:56 AM 59.0 °F 51.1 °F 75% 30.07 in 10.0 mi North 6.9 mph - N/A   Clear
2:56 AM 59.0 °F 50.0 °F 72% 30.06 in 10.0 mi North 8.1 mph - N/A   Clear
3:56 AM 59.0 °F 50.0 °F 72% 30.06 in 10.0 mi North 9.2 mph - N/A   Clear
4:56 AM 60.1 °F 50.0 °F 69% 30.06 in 10.0 mi North 10.4 mph - N/A   Clear
5:56 AM 61.0 °F 48.9 °F 64% 30.07 in 10.0 mi Calm Calm - N/A   Clear
6:56 AM 59.0 °F 51.1 °F 75% 30.10 in 10.0 mi North 10.4 mph - N/A   Clear
7:56 AM 62.1 °F 51.1 °F 67% 30.11 in 10.0 mi NNE 11.5 mph - N/A   Clear
8:56 AM 66.9 °F 52.0 °F 59% 30.11 in 10.0 mi Calm Calm - N/A   Clear
9:56 AM 70.0 °F 53.1 °F 55% 30.11 in 10.0 mi Calm Calm - N/A   Clear
10:56 AM 72.0 °F 53.1 °F 51% 30.11 in 10.0 mi Calm Calm - N/A   Clear
11:56 AM 73.9 °F 55.0 °F 52% 30.12 in 10.0 mi Calm Calm - N/A   Clear
12:56 PM 75.0 °F 52.0 °F 44% 30.11 in 10.0 mi Variable 4.6 mph - N/A   Clear
1:56 PM 80.1 °F 52.0 °F 38% 30.09 in 10.0 mi Calm Calm - N/A   Clear
2:56 PM 80.1 °F 50.0 °F 35% 30.09 in 10.0 mi Variable 3.5 mph - N/A   Clear
3:56 PM 80.1 °F 48.0 °F 32% 30.08 in 10.0 mi Variable 3.5 mph - N/A   Clear
4:56 PM 79.0 °F 48.9 °F 35% 30.07 in 10.0 mi Calm Calm - N/A   Clear
5:56 PM 75.0 °F 48.0 °F 38% 30.07 in 10.0 mi North 5.8 mph - N/A   Clear
6:56 PM 73.0 °F 48.9 °F 42% 30.09 in 10.0 mi Variable 3.5 mph - N/A   Clear
7:56 PM 69.1 °F 48.9 °F 49% 30.09 in 10.0 mi Variable 6.9 mph - N/A   Clear
8:56 PM 64.9 °F 55.0 °F 70% 30.11 in 10.0 mi NNW 9.2 mph - N/A   Clear
9:56 PM 63.0 °F 55.0 °F 75% 30.11 in 10.0 mi North 10.4 mph - N/A   Clear
10:56 PM 62.1 °F 53.1 °F 72% 30.12 in 10.0 mi North 12.7 mph 23.0 mph N/A   Clear
11:56 PM 61.0 °F 53.1 °F 75% 30.11 in 10.0 mi North 12.7 mph 23.0 mph N/A   Clear